Bad Axe, MI

7:27 AM EDT on July 28, 2017 (GMT -0400)
Huron County Memorial

Weather History for KBAX - November, 2012

Change the Weather History Date:

Monday, November 5, 2012

  Actual Average (KP58) Record (KP58)
Temperature  
Mean Temperature 34 °F -  
Max Temperature 38 °F 48 °F 72 °F (2015)
Min Temperature 32 °F 36 °F 28 °F (2002)
Degree Days  
Heating Degree Days 30    
Moisture  
Dew Point 28 °F    
Average Humidity 76    
Maximum Humidity 96    
Minimum Humidity 56    
Precipitation  
Precipitation 0.00 in - - ()
Sea Level Pressure  
Sea Level Pressure 30.19 in    
Wind  
Wind Speed 3 mph (North)    
Max Wind Speed 13 mph    
Max Gust Speed 16 mph    
Visibility 10 miles    
Events      
Averages and records for this station are not official NWS values.
T = Trace of Precipitation, MM = Missing Value Source: NWS Daily Summary

Daily Weather History Graph

Daily Weather History Graph

Search for Another Location

Airport or City:

Trip Planner

Search our weather history database for the weather conditions in past years. The results will help you decide how hot, cold, wet, or windy it might be!

Date:

Astronomy

Nov. 05, 2012 Rise Set
Actual Time 7:13 AM EST 5:16 PM EST
Civil Twilight 6:43 AM EST 5:46 PM EST
Nautical Twilight 6:09 AM EST 6:21 PM EST
Astronomical Twilight 5:35 AM EST 6:54 PM EST
Moon 10:53 PM EST (11/5) 12:33 PM EST (11/5)
Length of Visible Light 11h 03m
Length of Day
10h 02m
Waning Gibbous, 63% of the Moon is Illuminated
Nov 5
Waning Gibbous
Nov 6
Last Quarter
Nov 13
New
Nov 20
First Quarter
Nov 28
Full

Hourly Weather History & Observations

Time (EST) Temp. Windchill Dew Point Humidity Pressure Visibility Wind Dir Wind Speed Gust Speed Precip Events Conditions
12:13 AM 33.4 °F - 30.7 °F 90% 30.17 in 10.0 mi Calm Calm - N/A   Overcast
12:33 AM 33.6 °F - 31.1 °F 90% 30.17 in 10.0 mi Calm Calm - N/A   Overcast
12:53 AM 33.8 °F 29.6 °F 30.9 °F 89% 30.17 in 10.0 mi WNW 4.6 mph - N/A   Overcast
1:13 AM 33.8 °F - 30.2 °F 87% 30.17 in 10.0 mi Calm Calm - N/A   Overcast
1:33 AM 33.8 °F 30.8 °F 30.2 °F 87% 30.17 in 10.0 mi West 3.5 mph - N/A   Overcast
1:53 AM 33.8 °F - 30.2 °F 87% 30.17 in 10.0 mi Calm Calm - N/A   Overcast
2:13 AM 33.8 °F - 30.0 °F 86% 30.17 in 10.0 mi Calm Calm - N/A   Overcast
2:33 AM 33.8 °F 29.6 °F 30.6 °F 88% 30.17 in 10.0 mi NW 4.6 mph - N/A   Overcast
2:53 AM 33.4 °F 29.1 °F 30.4 °F 89% 30.17 in 10.0 mi NW 4.6 mph - N/A   Overcast
3:13 AM 32.0 °F - 28.9 °F 88% 30.17 in 10.0 mi Calm Calm - N/A   Overcast
3:33 AM 32.0 °F - 29.5 °F 90% 30.17 in 10.0 mi Calm Calm - N/A   Overcast
3:53 AM 32.0 °F - 29.1 °F 89% 30.17 in 10.0 mi Calm Calm - N/A   Overcast
4:13 AM 32.2 °F 27.7 °F 29.3 °F 89% 30.17 in 10.0 mi West 4.6 mph - N/A   Overcast
4:33 AM 32.9 °F 29.8 °F 29.8 °F 88% 30.17 in 10.0 mi WNW 3.5 mph - N/A   Overcast
4:53 AM 33.1 °F 30.0 °F 30.2 °F 89% 30.17 in 10.0 mi NW 3.5 mph - N/A   Overcast
5:13 AM 33.8 °F 29.6 °F 31.1 °F 90% 30.18 in 10.0 mi WNW 4.6 mph - N/A   Overcast
5:33 AM 33.3 °F 28.9 °F 31.5 °F 93% 30.18 in 10.0 mi WNW 4.6 mph - N/A   Overcast
5:53 AM 33.6 °F 30.6 °F 32.0 °F 94% 30.18 in 10.0 mi WNW 3.5 mph - N/A   Overcast
6:13 AM 33.1 °F - 31.8 °F 95% 30.18 in 10.0 mi Calm Calm - N/A   Overcast
6:33 AM 32.9 °F - 32.0 °F 96% 30.18 in 10.0 mi Calm Calm - N/A   Overcast
7:13 AM 32.9 °F - 32.0 °F 96% 30.19 in 10.0 mi Calm Calm - N/A   Overcast
7:33 AM 32.9 °F - 32.0 °F 96% 30.20 in 10.0 mi Calm Calm - N/A   Overcast
7:54 AM 33.1 °F - 32.0 °F 96% 30.20 in 10.0 mi Calm Calm - N/A   Overcast
8:13 AM 33.8 °F - 32.5 °F 95% 30.21 in 10.0 mi Calm Calm - N/A   Overcast
8:33 AM 34.0 °F - 32.9 °F 96% 30.21 in 10.0 mi Calm Calm - N/A   Overcast
8:54 AM 35.1 °F 29.3 °F 31.5 °F 87% 30.21 in 10.0 mi North 6.9 mph - N/A   Overcast
9:13 AM 35.4 °F 28.4 °F 29.5 °F 79% 30.21 in 10.0 mi NNE 9.2 mph - N/A   Overcast
9:33 AM 35.8 °F 30.1 °F 28.8 °F 76% 30.21 in 10.0 mi NNE 6.9 mph - N/A   Overcast
9:54 AM 36.1 °F 27.7 °F 27.9 °F 72% 30.21 in 10.0 mi NNE 12.7 mph 16.1 mph N/A   Overcast
10:13 AM 36.7 °F 29.9 °F 28.0 °F 71% 30.22 in 10.0 mi NNE 9.2 mph - N/A   Overcast
10:33 AM 36.7 °F 29.9 °F 27.0 °F 68% 30.22 in 10.0 mi North 9.2 mph - N/A   Overcast
10:54 AM 36.9 °F 29.6 °F 26.6 °F 66% 30.22 in 10.0 mi NE 10.4 mph - N/A   Overcast
11:13 AM 36.9 °F 29.1 °F 26.4 °F 66% 30.22 in 10.0 mi NNE 11.5 mph - N/A   Overcast
11:33 AM 37.0 °F 30.4 °F 26.2 °F 65% 30.22 in 10.0 mi NNE 9.2 mph - N/A   Overcast
11:54 AM 37.2 °F 31.2 °F 26.1 °F 64% 30.22 in 10.0 mi NE 8.1 mph - N/A   Overcast
12:13 PM 37.6 °F 32.3 °F 25.5 °F 62% 30.21 in 10.0 mi NNE 6.9 mph - N/A   Overcast
12:33 PM 37.6 °F 32.3 °F 25.0 °F 60% 30.21 in 10.0 mi ENE 6.9 mph - N/A   Overcast
12:54 PM 37.6 °F 31.0 °F 24.3 °F 59% 30.20 in 10.0 mi NE 9.2 mph - N/A   Overcast
1:13 PM 37.8 °F 31.8 °F 24.6 °F 59% 30.20 in 10.0 mi NNE 8.1 mph - N/A   Overcast
1:33 PM - - - N/A% - - North - - N/A   Unknown
1:54 PM - - - N/A% - - North - - N/A   Unknown
2:15 PM 37.8 °F - 24.1 °F 58% 30.19 in - Calm Calm - N/A   Unknown
2:35 PM 37.6 °F - 23.4 °F 57% 30.19 in 10.0 mi Calm Calm - N/A   Overcast
2:54 PM 37.4 °F 33.8 °F 22.8 °F 56% 30.18 in 10.0 mi North 4.6 mph - N/A   Overcast
3:15 PM 36.9 °F 33.1 °F 26.2 °F 65% 30.18 in 10.0 mi NE 4.6 mph - N/A   Overcast
3:34 PM 36.7 °F 32.9 °F 25.5 °F 64% 30.18 in 10.0 mi NNE 4.6 mph - N/A   Overcast
3:55 PM 36.5 °F - 26.1 °F 66% 30.18 in 10.0 mi Calm Calm - N/A   Overcast
4:15 PM 36.5 °F 32.7 °F 25.0 °F 63% 30.19 in 10.0 mi NNE 4.6 mph - N/A   Overcast
4:34 PM 36.1 °F 32.3 °F 24.6 °F 63% 30.19 in 10.0 mi North 4.6 mph - N/A   Overcast
4:55 PM 36.0 °F 32.1 °F 25.2 °F 65% 30.19 in 10.0 mi North 4.6 mph - N/A   Overcast
5:15 PM 35.6 °F 31.7 °F 27.1 °F 71% 30.19 in 10.0 mi NE 4.6 mph - N/A   Overcast
5:35 PM 35.2 °F - 26.8 °F 71% 30.19 in 10.0 mi Calm Calm - N/A   Overcast
5:55 PM 35.2 °F - 27.5 °F 73% 30.20 in 10.0 mi Calm Calm - N/A   Overcast
6:15 PM 36.0 °F - 22.5 °F 58% 30.20 in 10.0 mi Calm Calm - N/A   Overcast
6:35 PM 35.4 °F 31.5 °F 23.2 °F 61% 30.20 in 10.0 mi NW 4.6 mph - N/A   Overcast
6:55 PM 35.1 °F - 23.7 °F 63% 30.20 in 10.0 mi Calm Calm - N/A   Overcast
7:15 PM 34.7 °F - 24.4 °F 66% 30.20 in 10.0 mi Calm Calm - N/A   Overcast
7:35 PM 34.7 °F - 24.8 °F 67% 30.20 in 10.0 mi Calm Calm - N/A   Overcast
7:55 PM 35.2 °F - 23.4 °F 62% 30.20 in 10.0 mi Calm Calm - N/A   Overcast
8:15 PM 34.0 °F - 25.7 °F 72% 30.19 in 10.0 mi Calm Calm - N/A   Overcast
8:35 PM 34.0 °F - 25.3 °F 71% 30.19 in 10.0 mi Calm Calm - N/A   Overcast
8:55 PM 33.4 °F - 25.5 °F 73% 30.19 in 10.0 mi Calm Calm - N/A   Overcast
9:15 PM 32.2 °F - 26.2 °F 79% 30.19 in 10.0 mi Calm Calm - N/A   Overcast
9:35 PM 33.4 °F - 25.2 °F 72% 30.19 in 10.0 mi Calm Calm - N/A   Overcast
9:55 PM 33.1 °F - 26.1 °F 75% 30.18 in 10.0 mi Calm Calm - N/A   Overcast
10:15 PM 33.1 °F 30.0 °F 23.9 °F 69% 30.18 in 10.0 mi West 3.5 mph - N/A   Overcast
10:35 PM 32.9 °F 28.5 °F 25.3 °F 74% 30.18 in 10.0 mi NW 4.6 mph - N/A   Overcast
10:55 PM 33.1 °F - 25.3 °F 73% 30.18 in 10.0 mi Calm Calm - N/A   Overcast
11:15 PM 32.7 °F - 25.3 °F 74% 30.18 in 10.0 mi Calm Calm - N/A   Overcast
11:35 PM 32.0 °F - 26.2 °F 79% 30.17 in 10.0 mi Calm Calm - N/A   Overcast
11:55 PM 32.0 °F - 26.6 °F 80% 30.17 in 10.0 mi Calm Calm - N/A   Overcast